www.pogodaiklimat.ru

Погода и климат >> Архив погоды >> Южная Африка >> Кейптаун порт


ПОГОДА в Кейптаун порту

  • Прогноз погоды в Кейптаун порту
  • Монитор погоды в Кейптаун порту

АРХИВ ПОГОДЫ в Кейптаун порту

Время (UTC), дата Ветер
(напр.,м/с)
 
Видим.   Явления Облачность Т
(С)
Тd
(С)
f
(%)
Тe
(С)
Тes
(С)
Комфортность P
(гПа)
Po
(гПа)
Тmin
(С)
Tmax
(С)
R
(мм)
R24
(мм)
S
(см)
06 15.08 ЮЗ 1 н/о н/о +13.1 +9.9 81 +13 +13 1027.1 1025.8 +10.4 0.6
09 15.08 штиль 0 н/о н/о +19.7 +12.0 61 +21 +21 комфорт 1027.5 1026.2 +10.4 +20.5
12 15.08 ЮВ 2 н/о н/о +22.3 +10.9 48 +24 +24 комфорт 1025.3 1024.0 +10.4 +22.3
15 15.08 ЮВ 5 н/о н/о +18.4 +11.7 65 +18 +18 1023.8 1022.5 +18.4 +22.3
18 15.08 штиль 0 н/о н/о +15.7 +11.1 74 +16 +16 1024.2 1022.9 +15.6 +22.3
21 15.08 С 1 н/о н/о +14.8 +11.0 78 +15 +15 1023.6 1022.3 +13.6 +22.3
00 16.08 ЮЗ 2 н/о н/о +12.7 +9.5 81 +12 +12 1023.4 1022.1 +12.2 +22.3
03 16.08 ЮВ 1 н/о н/о +13.0 +9.1 77 +13 +13 1023.4 1022.1 +11.4 +22.3
06 16.08 штиль 0 н/о н/о +13.3 +9.3 77 +13 +13 1024.9 1023.6 +11.3
09 16.08 С 2 н/о н/о +18.6 +11.0 61 +20 +20 1026.2 1024.9 +11.3 +19.4
12 16.08 Ю 6 н/о н/о +19.0 +10.9 59 +19 +19 1024.6 1023.3 +11.3 +20.6
15 16.08 Ю 10 н/о н/о +18.0 +10.2 60 +17 +17 1023.7 1022.4 +17.8 +20.6
18 16.08 Ю 13 н/о н/о +16.9 +10.3 65 +15 +15 1023.9 1022.6 +16.7 +20.6
21 16.08 Ю 11 н/о н/о +16.5 +9.9 65 +15 +15 1023.2 1021.9 +16.0 +20.6
00 17.08 Ю 12 н/о н/о +16.9 +8.9 59 +15 +15 1021.9 1020.6 +16.0 +20.6
03 17.08 Ю 8 н/о н/о +16.9 +8.1 56 +16 +16 1020.8 1019.5 +16.0 +20.6
06 17.08 СЗ 1 н/о н/о +16.7 +10.1 65 +18 +18 1020.8 1019.5 +15.5
09 17.08 С 1 н/о н/о +20.7 +10.0 50 +23 +23 комфорт 1020.4 1019.1 +15.5 +22.6
12 17.08 С 2 н/о н/о +23.7 +5.8 31 +24 +24 комфорт 1018.0 1016.8 +15.5 +24.4
15 17.08 штиль 0 н/о н/о +25.8 +6.6 29 +25 +25 комфорт 1016.2 1015.0 +23.7 +26.8
18 17.08 ЮВ 3 н/о н/о +19.3 +9.6 53 +21 +21 комфорт 1016.2 1014.9 +19.1 +26.8
21 17.08 штиль 0 н/о н/о +16.6 +9.8 64 +17 +17 1015.3 1014.0 +16.0 +26.8
00 18.08 штиль 0 н/о н/о +15.4 +7.5 59 +15 +15 1014.7 1013.4 +14.5 +26.8
03 18.08 штиль 0 н/о н/о +14.1 +10.1 77 +14 +14 1013.8 1012.5 +13.1 +26.8
06 18.08 С 2 н/о н/о +15.6 +12.3 81 +15 +15 1015.5 1014.2 +13.1
09 18.08 С 2 н/о н/о +17.6 +13.3 76 +18 +18 1017.6 1016.3 +13.1 +19.1
12 18.08 С 3 н/о н/о +18.5 +13.4 72 +19 +19 1018.2 1016.9 +13.1 +19.1
15 18.08 З 4 н/о н/о +17.7 +12.2 70 +17 +17 1019.9 1018.6 +17.3 +19.1
18 18.08 З 3 н/о н/о +16.4 +11.1 71 +16 +16 1022.0 1020.7 +16.4 +19.1
21 18.08 З 1 н/о н/о +16.0 +11.4 74 +17 +17 1024.2 1022.9 +15.8 +19.1
00 19.08 З 4 н/о н/о +15.5 +9.2 66 +15 +15 1025.9 1024.6 +14.9 +19.1
03 19.08 СВ 1 н/о н/о +13.4 +6.7 64 +14 +14 1027.4 1026.1 +13.4 +19.1
06 19.08 ЮВ 1 н/о н/о +15.3 +5.5 52 +16 +16 1028.8 1027.5 +13.3
09 19.08 СВ 2 н/о н/о +17.9 +6.8 48 +18 +18 1031.2 1029.9 +13.3 +19.9
12 19.08 ЮВ 3 н/о н/о +18.1 +5.1 42 +18 +18 1030.2 1028.9 +13.3 +19.9
15 19.08 Ю 4 н/о н/о +17.5 +6.7 49 +17 +17 1030.6 1029.3 +16.9 +19.9
18 19.08 Ю 5 н/о н/о +15.6 +7.2 57 +14 +14 1031.5 1030.2 +15.6 +19.9
21 19.08 В 2 н/о н/о +15.6 +5.5 51 +16 +16 1031.2 1029.9 +15.4 +19.9
00 20.08 Ю 5 н/о н/о +15.7 +7.2 57 +15 +15 1030.7 1029.4 +14.9 +19.9
03 20.08 С 2 н/о н/о +15.0 +7.1 59 +15 +15 1030.0 1028.7 +14.9 +19.9
06 20.08 ЮЗ 1 н/о н/о +14.2 +8.0 66 +15 +15 1030.1 1028.8 +12.2
09 20.08 С 1 н/о н/о +19.5 +9.7 53 +22 +22 комфорт 1030.6 1029.3 +12.2 +20.3
12 20.08 С 1 н/о н/о +19.7 +9.1 50 +22 +22 комфорт 1028.3 1027.0 +12.2 +20.5
15 20.08 С 1 н/о н/о +19.9 +9.6 51 +22 +22 комфорт 1026.7 1025.4 +19.0 +21.6
18 20.08 С 1 н/о н/о +14.9 +9.7 71 +15 +15 1027.0 1025.7 +14.9 +21.6
21 20.08 штиль 0 н/о н/о +13.4 +7.6 68 +13 +13 1026.7 1025.4 +13.1 +21.6
00 21.08 штиль 0 н/о н/о +12.0 +7.7 75 +12 +12 1025.7 1024.4 +12.0 +21.6
03 21.08 штиль 0 н/о н/о +11.1 +6.2 72 +11 +11 1024.0 1022.7 +10.5 +21.6
06 21.08 Ю 1 н/о н/о +13.6 +6.7 63 +14 +14 1024.2 1022.9 +10.5
09 21.08 штиль 0 н/о н/о +22.8 +11.3 48 +25 +25 комфорт 1023.6 1022.4 +10.5 +23.3
12 21.08 С 1 н/о н/о +27.4 +5.9 25 +26 +26 жарко 1021.3 1020.1 +10.5 +29.5
15 21.08 ЮВ 3 н/о н/о +25.4 +8.6 34 +26 +26 жарко 1020.1 1018.9 +25.4 +31.1
18 21.08 ЮВ 3 н/о н/о +18.7 +6.6 45 +19 +19 1020.8 1019.5 +18.4 +31.1
21 21.08 штиль 0 н/о н/о +16.4 +7.9 57 +16 +16 1020.6 1019.3 +16.2 +31.1
00 22.08 штиль 0 н/о н/о +13.6 +6.5 62 +13 +13 1020.8 1019.5 +13.5 +31.1

 

Местоположение метеостанции Кейптаун порт (Южная Африка): широта -33.90 долгота 18.43 высота над уровнем моря 0 м.

В архиве по умолчанию представлена погода в Кейптаун порту за последнюю неделю. Архивные данные за месяц целиком и за предыдущие месяцы, начиная с января 2011 года, Вы можете получить, выбрав интересующий диапазон дат из раскрывающегося списка и нажав кнопку "Ввод!".


*Определитесь, кто Вы:
робот инопланетянин человек

Внимание! Время в таблицах - всемирное. Для получения местного времени необходимо прибавить поправку, которая равна 2 ч.

Смотрите также архив погоды в соседних городах и на ближайших метеорологических станциях:

Погода в Кейптауне (Южная Африка) (5 км)
Погода в Йестерпланте (Южная Африка) (6 км)
Погода на Роббенэйланде (Южная Африка) (12 км)
Погода в Кейптауне (Южная Африка) (17 км)
Погода в Кейптауне аэропорту АМС (Южная Африка) (17 км)
Погода на Слангкопе (Южная Африка) (30 км)
Погода в Странде (Южная Африка) (47 км)
Погода на Кейп-Пойнт (Южная Африка) (50 км)
Погода в Парле (Южная Африка) (54 км)
Погода в Малмсбери (Южная Африка) (56 км)

Пояснения к столбцам:

Ветер - указаны скорость ветра в м/с - средняя за 10 мин, порывы в срок и между сроками (в фигурных скобках) и направление, откуда дует ветер: С - северный, СВ - северо-восточный, В - восточный, ЮВ - юго-восточный, Ю - южный, ЮЗ - юго-западный, З - западный, СЗ - северо-западный.
Видимость - горизонтальная дальность видимости в метрах или километрах. При видимости от 1 до 10 км при отсутствии осадков обычно наблюдается дымка, при ухудшении видимости до 1 км и менее - туман. В сухую погоду видимость может ухудшаться дымом, пылью или мглою.
Явления - указаны атмосферные явления, наблюдавшиеся в срок или в последний час перед сроком; фигурными скобками обозначены явления, наблюдавшиеся между сроками (за 1-3 часа до срока); квадратными скобками обозначены град или гололедные отложения с указанием их диаметра в мм.
Облачность - указаны через наклонную черту общая и нижняя облачность в баллах и высота нижней границы облаков в метрах; квадратными скобками обозначены формы облаков: Ci - перистые, Cs - перисто-слоистые, Cc - перисто-кучевые, Ac - высококучевые, As - высокослоистые, Sc - слоисто-кучевые, Ns - слоисто-дождевые, Cu - кучевые, Cb - кучево-дождевые. Подробнее классификацию облаков см. в Атласе облаков (PDF).
T - Температура воздуха - температура, измеренная на высоте 2 м над землей.
Td - Температура точки росы - температура, при понижении до которой содержащийся в воздухе водяной пар достигнет насыщения.
f - Относительная влажность воздуха - влажноcть воздуха, измеренная на высоте 2 м над землей.
Te - Эффективная температура - температура, которую ощущает одетый по сезону человек в тени. Характеристика душности погоды. При расчете учитывается влияние влажности воздуха и скорости ветра на теплоощущения человека.
Tes - Эффективная температура на солнце - температура, которую ощущает человек, с поправкой на солнечный нагрев. Характеристика знойности погоды. Зависит от высоты солнца над горизонтом, облачности и скорости ветра. Ночью, в пасмурную погоду, а также при ветре 12 м/с и более поправка равна нулю.
P - Атмосферное давление - приведенное к уровню моря атмосферное давление.
Po - Атмосферное давление - измеренное на уровне метеостанции атмосферное давление.
Tmin - Минимальная температура - минимум температуры воздуха на высоте 2 м над землей.
Tmax - Максимальная температура - максимум температуры воздуха на высоте 2 м над землей.
R - Количество осадков - Количество выпавших осадков за период времени, мм. При наведении курсора мыши на число - период времени, за который выпало указанное количество осадков.
R24 - Количество осадков - Количество выпавших осадков за 24 часа, мм.
S - Снежный покров - Высота снежного покрова, см. При наведении курсора мыши на число - состояние снежного покрова и степень покрытия местности в баллах.